[[{"header":{"parameterUnit":"m.s-1","parameterCategory":1,"la1":30.2991,"la2":30.254,"lo1":-89.0895,"lo2":-89.0444,"dy":0.0017,"dx":0.0017,"nx":28,"ny":28,"refTime":"2024-05-02T03:00:00:Z","depth":0,"parameterNumber":2,"parameterNumberName":"U-component_of_WINDS"},"data":[0,0,0,0,0,0,0,0,0,0,0,0,0,0,0,0,0,0,0,0,0,0,0,0,0,0,0,0,0,0,0,0,0,0,0,0,0,0,0,0,0,0,0,0,0,0,0,0,0,0,0,0,0,0,0,0,0,0,-2.8001,-2.8001,0,-2.7966,-2.7966,-2.7965,-2.7896,-2.7894,-2.7893,-2.7892,-2.7856,-2.7856,-2.7857,0,0,0,0,0,0,0,0,0,0,0,0,0,-2.8009,-2.8009,-2.8001,-2.8001,-2.8,-2.7966,-2.7966,-2.7965,-2.7896,-2.7894,-2.7893,-2.7891,-2.7856,-2.7856,-2.7857,0,0,0,0,0,0,0,0,0,0,0,0,0,-2.7993,-2.8009,-2.8001,-2.7961,-2.7958,-2.7966,-2.7966,-2.7965,-2.7896,-2.7894,-2.7892,-2.789,-2.7856,-2.7856,-2.7857,-2.7901,0,0,-2.7858,-2.7859,0,0,0,0,0,0,0,0,-2.7994,-2.7993,-2.7968,-2.7964,-2.796,-2.7933,-2.7955,-2.7944,-2.7897,-2.792,-2.7892,-2.7889,-2.7883,-2.7881,-2.7879,-2.79,-2.7898,-2.7858,-2.7859,-2.7859,-2.7859,0,0,0,0,0,0,0,-2.7995,-2.7994,-2.7987,-2.7967,-2.7963,-2.7946,-2.7941,-2.7953,-2.7913,-2.7917,-2.7912,-2.7909,-2.7881,-2.7879,-2.7878,-2.7898,-2.7858,-2.7859,-2.7859,-2.7859,-2.7954,-2.7956,0,0,0,0,0,0,-2.8002,-2.7995,-2.7988,-2.7986,-2.7972,-2.7947,-2.7942,-2.7944,-2.7913,-2.7907,-2.7911,-2.7906,-2.7879,-2.7878,-2.7877,-2.7926,-2.7859,-2.7859,-2.786,-2.7951,-2.7954,-2.7956,0,0,0,0,0,0,-2.8002,-2.8002,-2.799,-2.7989,-2.7986,-2.795,-2.7952,-2.7944,-2.7942,-2.7908,-2.7901,-2.7916,-2.7878,-2.7876,-2.7896,-2.7924,-2.786,-2.786,-2.7949,-2.7952,-2.7955,-2.8026,0,0,0,0,0,0,-2.8003,-2.8002,-2.8018,-2.799,-2.7987,-2.8009,-2.7954,-2.7945,-2.7943,-2.7937,-2.7911,-2.7905,-2.7876,-2.7896,-2.7896,-2.7924,-2.786,-2.7946,-2.795,-2.7954,-2.8021,-2.8032,-2.8041,0,0,0,0,0,-2.8003,-2.8039,-2.8019,-2.8019,-2.8006,-2.8011,-2.8009,-2.7974,-2.7946,-2.7962,-2.7941,-2.7906,-2.7922,-2.7898,-2.7899,-2.7926,-2.7944,-2.7949,-2.7954,-2.8017,-2.803,-2.8041,0,0,0,0,0,0,-2.8071,-2.8035,-2.8012,-2.804,-2.8029,-2.7999,-2.8018,-2.7989,-2.7985,-2.7979,-2.7937,-2.7932,-2.7957,-2.7944,-2.7919,-2.7969,-2.7928,-2.7933,-2.7975,-2.7987,-2.7997,-2.7998,-2.7861,0,0,0,0,0,-2.809,-2.8097,-2.8065,-2.8093,-2.8089,-2.8055,-2.8055,-2.803,-2.8017,-2.8012,-2.7991,-2.798,-2.7982,-2.7985,-2.7985,-2.8021,-2.8014,-2.804,-2.805,-2.8058,-2.8062,-2.808,-2.8091,-2.7973,-2.7973,-2.7973,0,0,-2.8127,-2.8108,-2.8115,-2.8106,-2.8094,-2.8103,-2.8051,-2.8062,-2.8067,-2.8013,-2.803,-2.8016,-2.8001,-2.8029,-2.804,-2.8018,-2.8094,-2.8064,-2.8071,-2.8071,-2.8086,-2.8098,-2.8108,-2.7976,-2.7976,-2.7975,0,0,-2.8199,-2.8187,-2.8208,-2.8198,-2.8182,-2.8159,-2.8165,-2.814,-2.8128,-2.8145,-2.8105,-2.8112,-2.8117,-2.8108,-2.8104,-2.8177,-2.8144,-2.8178,-2.8227,-2.8245,-2.8255,-2.8263,-2.8288,-2.8297,-2.8183,-2.8183,-2.8183,0,-2.8248,-2.8258,-2.8223,-2.8237,-2.8234,-2.8187,-2.8209,-2.8201,-2.8186,-2.8185,-2.8162,-2.8168,-2.8155,-2.818,-2.8198,-2.8197,-2.8202,-2.8179,-2.8256,-2.8264,-2.8271,-2.8294,-2.8304,-2.8187,-2.8187,-2.8186,-2.8186,0,-2.8319,-2.8327,-2.8347,-2.8333,-2.8333,-2.8351,-2.8319,-2.8324,-2.83,-2.8281,-2.8299,-2.8282,-2.8278,-2.8283,-2.826,-2.8306,-2.8293,-2.8264,-2.8221,-2.8287,-2.8308,-2.8317,-2.8193,-2.8192,-2.819,-2.8189,0,0,-2.8428,-2.8398,-2.8405,-2.8399,-2.8379,-2.8385,-2.8402,-2.8399,-2.8403,-2.8396,-2.8408,-2.8415,-2.8389,-2.8384,-2.836,-2.8376,-2.8434,-2.8345,-2.8344,-2.8361,-2.8483,-2.8503,-2.8514,-2.8415,-2.8416,-2.8417,-2.8484,0,-2.8494,-2.852,-2.849,-2.8522,-2.853,-2.8487,-2.8502,-2.8492,-2.8475,-2.848,-2.8461,-2.8466,-2.8432,-2.8429,-2.8444,-2.8424,-2.8458,-2.8419,-2.8425,-2.8425,-2.8427,-2.8525,-2.8546,-2.8609,-2.8492,-2.8494,-2.8495,0,-2.8573,-2.857,-2.8603,-2.8582,-2.8584,-2.8598,-2.8593,-2.8598,-2.8587,-2.8573,-2.857,-2.8542,-2.8557,-2.8519,-2.854,-2.8514,-2.8516,-2.8507,-2.8509,-2.8505,-2.8462,-2.8523,-2.8629,-2.8638,-2.8507,-2.8506,-2.8505,0,-2.8649,-2.8653,-2.8673,-2.8669,-2.8646,-2.8656,-2.8647,-2.8634,-2.8634,-2.8631,-2.8631,-2.863,-2.8629,-2.8629,-2.8601,-2.8576,-2.8625,-2.8584,-2.8614,-2.8615,-2.8623,-2.8623,-2.8729,-2.8629,-2.8629,-2.8629,-2.8629,0,-2.8724,-2.8745,-2.8706,-2.8718,-2.8742,-2.8709,-2.8733,-2.872,-2.8709,-2.8718,-2.8682,-2.8692,-2.8656,-2.8662,-2.8641,-2.8661,-2.8661,-2.8651,-2.8644,-2.8652,-2.8653,-2.865,-2.8644,-2.8631,-2.8631,-2.863,-2.863,0,-2.881,-2.8785,-2.8804,-2.8781,-2.8776,-2.8794,-2.8775,-2.8786,-2.8768,-2.8781,-2.8782,-2.8754,-2.876,-2.8733,-2.8734,-2.872,-2.875,-2.8737,-2.8754,-2.8749,-2.8779,-2.8776,-2.8885,-2.8897,-2.8792,-2.8793,-2.8794,0,-2.8858,-2.8873,-2.8853,-2.8857,-2.885,-2.8856,-2.8857,-2.8826,-2.8829,-2.8818,-2.883,-2.8833,-2.8833,-2.8844,-2.8824,-2.8825,-2.8811,-2.885,-2.8811,-2.8819,-2.8809,-2.8808,-2.8809,-2.8857,-2.8858,-2.8859,-2.886,0,-2.8945,-2.8933,-2.8935,-2.8934,-2.8936,-2.8933,-2.8928,-2.8934,-2.8901,-2.8905,-2.8911,-2.8911,-2.8913,-2.8916,-2.8913,-2.8904,-2.8877,-2.8873,-2.8879,-2.8886,-2.8894,-2.8889,-2.8773,-2.887,-2.8869,-2.8868,-2.8867,-2.8867,-2.9012,-2.9024,-2.9012,-2.9016,-2.901,-2.9007,-2.9016,-2.9,-2.9004,-2.9003,-2.8985,-2.8994,-2.8984,-2.8978,-2.8972,-2.8979,-2.8961,-2.8971,-2.8973,-2.8975,-2.898,-2.8896,-2.8979,-2.8978,-2.8978,-2.8978,-2.8978,0,-2.9096,-2.9087,-2.9092,-2.9086,-2.909,-2.9065,-2.9059,-2.9064,-2.9072,-2.9065,-2.9067,-2.9074,-2.9078,-2.906,-2.9061,-2.907,-2.9057,-2.9071,-2.9069,-2.9067,-2.8997,-2.899,-2.9081,-2.9081,-2.9081,-2.9081,-2.9081,-2.9081,-2.914,-2.9159,-2.9146,-2.9162,-2.9153,-2.9161,-2.916,-2.9157,-2.9151,-2.9161,-2.9164,-2.9152,-2.9141,-2.9142,-2.9144,-2.9139,-2.914,-2.9158,-2.9148,-2.9082,-2.9072,-2.9062,-2.9055,-2.9159,-2.9159,-2.9218,-2.9218,-2.9219]},{"header":{"parameterUnit":"m.s-1","parameterCategory":1,"la1":30.2991,"la2":30.254,"lo1":-89.0895,"lo2":-89.0444,"dy":0.0017,"dx":0.0017,"nx":28,"ny":28,"refTime":"2024-05-02T03:00:00:Z","depth":0,"parameterNumber":3,"parameterNumberName":"V-component_of_WINDS"},"data":[0,0,0,0,0,0,0,0,0,0,0,0,0,0,0,0,0,0,0,0,0,0,0,0,0,0,0,0,0,0,0,0,0,0,0,0,0,0,0,0,0,0,0,0,0,0,0,0,0,0,0,0,0,0,0,0,0,0,1.9893,1.9893,0,1.9955,1.9956,1.9956,2.0003,2.0003,2.0004,2.0004,2.0063,2.0064,2.0066,0,0,0,0,0,0,0,0,0,0,0,0,0,1.981,1.9812,1.9893,1.9893,1.9894,1.9955,1.9956,1.9957,2.0003,2.0003,2.0004,2.0005,2.0063,2.0064,2.0066,0,0,0,0,0,0,0,0,0,0,0,0,0,1.9857,1.9812,1.9892,1.9925,1.9928,1.9955,1.9956,1.9957,2.0003,2.0004,2.0004,2.0005,2.0062,2.0064,2.0066,2.0064,0,0,2.0071,2.0072,0,0,0,0,0,0,0,0,1.9854,1.986,1.9919,1.9923,1.9927,1.9972,1.9948,1.9992,2.0003,1.9974,2.0004,2.0005,2.0032,2.0036,2.0046,2.0066,2.0069,2.0071,2.0072,2.0073,2.0074,0,0,0,0,0,0,0,1.9851,1.9857,1.9917,1.992,1.9925,1.9935,1.9942,1.9957,1.9999,1.9977,1.998,1.9987,2.0034,2.0045,2.0048,2.007,2.0071,2.0073,2.0074,2.0075,2.0093,2.0092,0,0,0,0,0,0,1.9843,1.9854,1.9915,1.9919,1.9891,1.9936,1.9944,1.9957,1.9999,2.0006,1.9987,1.9989,2.0041,2.0046,2.005,2.0052,2.0073,2.0075,2.0076,2.0093,2.0093,2.0092,0,0,0,0,0,0,1.9841,1.9848,1.9913,1.9888,1.9897,1.9937,1.995,1.9958,1.9968,2.0006,2.0013,1.999,2.0042,2.0048,2.0061,2.0055,2.0076,2.0077,2.0094,2.0093,2.0092,2.0054,0,0,0,0,0,0,1.9838,1.9847,1.9847,1.9887,1.9898,1.9923,1.995,1.9958,1.9972,1.9976,2.0011,2.0018,2.0043,2.0058,2.0062,2.0057,2.0078,2.0095,2.0094,2.0093,2.0056,2.0052,2.0048,0,0,0,0,0,1.9835,1.9832,1.9847,1.9854,1.9899,1.9922,1.9928,1.9959,1.9971,1.9971,1.9996,2.0017,2.0055,2.0059,2.0064,2.006,2.0095,2.0094,2.0093,2.0058,2.0053,2.0049,0,0,0,0,0,0,1.9788,1.9838,1.9855,1.9865,1.9889,1.993,1.9931,1.9952,1.9972,1.9975,2.001,2.0018,2.0027,2.0045,2.0049,2.0061,2.0078,2.0077,2.0049,2.0045,2.0041,2.0037,2.008,0,0,0,0,0,1.9779,1.9795,1.9838,1.9842,1.9854,1.989,1.9902,1.9923,1.9949,1.9959,1.9985,2.0008,2.0026,2.0036,2.0054,2.0059,2.0068,2.0058,2.0055,2.0051,2.0051,2.0056,2.0053,2.0088,2.0088,2.0088,0,0,1.976,1.979,1.9797,1.9834,1.9855,1.987,1.9899,1.9913,1.9924,1.9961,1.9976,1.9995,2.0023,2.0033,2.0038,2.0047,2.0043,2.005,2.0047,2.0048,2.0054,2.0051,2.0048,2.0087,2.0087,2.0087,0,0,1.9734,1.9757,1.9765,1.9787,1.982,1.9845,1.9846,1.9885,1.99,1.9915,1.9944,1.9957,1.9986,2.0005,2.0019,2.0002,2.0022,2.0007,1.9987,1.9992,1.9989,1.9987,1.9982,1.998,2.0006,2.0006,2.0006,0,1.9706,1.9731,1.9766,1.9779,1.9795,1.9831,1.9839,1.9858,1.9894,1.9903,1.9914,1.9952,1.9973,1.9989,1.9985,1.9994,1.9998,2.0003,1.9987,1.9985,1.9984,1.9979,1.9977,2.0004,2.0004,2.0004,2.0005,0,1.9695,1.9712,1.9714,1.9751,1.9767,1.9777,1.9813,1.9824,1.9845,1.9868,1.9884,1.9912,1.9937,1.9942,1.9961,1.996,1.9965,1.9981,1.9998,1.9978,1.9974,1.9973,2.0001,2.0002,2.0002,2.0003,0,0,1.964,1.9698,1.9698,1.9716,1.9756,1.9769,1.9781,1.9808,1.9817,1.9841,1.9852,1.9877,1.9893,1.9908,1.993,1.9934,1.9921,1.995,1.9951,1.9944,1.9923,1.9911,1.9908,1.9934,1.9934,1.9934,1.9921,0,1.962,1.9646,1.9679,1.9693,1.971,1.9745,1.9756,1.9781,1.9803,1.982,1.9844,1.9862,1.988,1.989,1.9896,1.9921,1.9917,1.9922,1.9945,1.9945,1.9937,1.9907,1.9894,1.988,1.9919,1.9919,1.9919,0,1.9601,1.9626,1.9642,1.9683,1.9691,1.97,1.9728,1.9744,1.9773,1.9789,1.9808,1.9832,1.9846,1.9862,1.9882,1.9885,1.9896,1.991,1.991,1.9914,1.9931,1.991,1.9876,1.9874,1.9917,1.9917,1.9917,0,1.956,1.9597,1.9613,1.9627,1.9674,1.968,1.97,1.973,1.9745,1.9768,1.9778,1.9802,1.9815,1.9833,1.9863,1.9872,1.9881,1.9899,1.9894,1.9893,1.9894,1.9894,1.9863,1.99,1.99,1.99,1.99,0,1.9535,1.9544,1.9596,1.9605,1.9616,1.9653,1.9663,1.9686,1.9713,1.9727,1.9758,1.977,1.9809,1.9826,1.9849,1.9863,1.9868,1.9881,1.9887,1.9879,1.9877,1.9887,1.9889,1.99,1.99,1.99,1.99,0,1.9491,1.9526,1.9546,1.959,1.9601,1.9608,1.9645,1.9655,1.968,1.9698,1.9704,1.9742,1.9764,1.9796,1.9826,1.9842,1.9852,1.9861,1.9842,1.9846,1.984,1.9841,1.9814,1.9813,1.985,1.985,1.985,0,1.9473,1.9482,1.9528,1.954,1.956,1.9579,1.9595,1.9632,1.9647,1.9682,1.9688,1.9713,1.9734,1.9766,1.9796,1.982,1.9831,1.982,1.9834,1.9826,1.9832,1.9831,1.9833,1.9816,1.9816,1.9815,1.9815,0,1.9438,1.9456,1.9478,1.9507,1.9526,1.955,1.9575,1.9583,1.9626,1.964,1.9664,1.9681,1.9713,1.9737,1.9765,1.9784,1.9806,1.981,1.9811,1.9802,1.9791,1.9798,1.9834,1.9811,1.9811,1.9811,1.9812,1.9812,1.9408,1.9417,1.9452,1.9477,1.95,1.9524,1.9536,1.9564,1.9585,1.9616,1.9636,1.9658,1.9688,1.9729,1.9747,1.9765,1.9774,1.9774,1.9774,1.9774,1.9771,1.9788,1.9769,1.977,1.977,1.977,1.977,0,1.9375,1.94,1.9422,1.9458,1.9477,1.9499,1.9529,1.9543,1.9563,1.959,1.9612,1.9639,1.9663,1.9695,1.9721,1.9729,1.974,1.9735,1.9735,1.9739,1.9761,1.9759,1.9726,1.9726,1.9726,1.9726,1.9726,1.9726,1.9361,1.9379,1.9401,1.9431,1.9455,1.948,1.9495,1.9517,1.9539,1.9569,1.959,1.9612,1.9641,1.967,1.9692,1.9701,1.971,1.9701,1.9713,1.9733,1.9737,1.9741,1.9739,1.9703,1.9703,1.969,1.969,1.969]}]]